Location: Bullenkuhlen
(53.7689°N, 9.7495°E)
Time: 00:16:46
(UTC+00:00)

SL-16 R/B - Pass Details

Date: 09 April 2020
Orbit: 985 x 1007 km, 99.5° (Epoch: 04 June)

Event Time Altitude Azimuth Distance (km) Brightness Sun altitude
Exits shadow 23:48:44 29° 110° (ESE) 1,762 3.7 -27.9°
Maximum altitude 23:51:24 43° 60° (ENE) 1,368 3.4 -27.9°
Drops below altitude 10° 23:57:14 10° 351° (N) 2,775 5.7 -27.7°
Sets 23:59:48 0° 346° (NNW) 3,724 6.5 -27.7°
